CZ-6A DEB, 54533

Orbit data source: Space-Track

CZ-6A DEB, 54533 is space debris in SSO originally from a launch on Fri, 11 Nov 2022 UTC launched from the Taiyaun Space Center, China (TSC). Debris objects in space refer to the collection of defunct objects orbiting the Earth. Examples of debris include non-operational satellites, rocket bodies, and fragments generated from explosions, collisions, or faulty payload assembly.

Loading next visibility...
Identifier
54533, 2022-151KM
Orbit
SSO
Country
Flag of CNCN / PRC
Related business
Manufacturer
SAST
Mission
Spacecraft
Bus & Motor
Unknown
Mass
Unknown
Launch date (UTC)
2022-11-11 (3 years ago)
Launch vehicle
Unknown
Launch site
Taiyaun Space Center, China (TSC)
Object type
Payload
Rocket body
Debris
Shape & HBR
Unknown shape, 0.6 m
Radar Cross Section
Medium (>0.1 m² and <1 m²)

Expand to show TLE details & history
Last TLE update: 12 hours ago

TLE from 12 hours ago
0 CZ-6A DEB
1 54533U 22151KM  25352.55978455  .00000497  00000-0  31748-3 0  9992
2 54533  98.8502 344.7192 0067950 162.2933 198.0627 14.06880179158895
Epoch: 2025-12-18T13:26Z
TLE epoch observation values (Epoch: 2025-12-18T13:26:05.385Z)
Latitude
0.00007°
Longitude
55.78321°
Altitude
919.825 km
Speed
7.368 km/s
True Right ascension
22h 58m 52s
True Declination
0° 00' 00"
Sunlit
Object was in daylight at epoch
Visualization orbit readout
Latitude
Unknown
Longitude
Unknown
Altitude
Unknown
Speed
Unknown
Apparent Right ascension
Unknown
Apparent Declination
Unknown
Sunlit
N/A
Visualization observer readout
Local Sidereal Time
00:38:23
Azimuth
Unknown
Elevation
Unknown
Doppler factor
Unknown
Orbital elements
Apogee altitude
916.483 km
Perigee altitude
818.018 km
Semi-major axis
7,245.387 km
Eccentricity
0.0068
Inclination
98.8502°
RAAN
344.7192°
Arg. of periapsis
162.2933°
True anomaly
197.82321°
Mean anomaly
198.0627°
Eccentric anomaly
197.94276°
Mean motion
3.51926 °/min
Orbital period
102.29 mins
BSTAR
0.00031748
Loading maneuver chart data...
Computing Atmospheric mass density...
Loading historical data...
Loading historical data...
Loading historical data...
Loading historical data...
Loading historical data...
Loading historical data...
Loading historical data...

Documentation

Showing up to 5 results
|